| time (UTC) | temp C | wind direction | speed KPH | gust KPH | rain 1hr cm | rain 24hr cm | rain mn cm | humidity % | barometer mb |
| 20260504070219 | 11 | 260 | 0.0 | 0.0 | 0.00 | 0.18 | 0.00 | 70 | 1003.7 |
| 20260504060218 | 12 | 260 | 0.0 | 0.0 | 0.00 | 0.18 | 0.00 | 65 | 1004.6 |
| 20260504050218 | 13 | 260 | 0.0 | 0.0 | 0.00 | 0.18 | 0.00 | 60 | 1004.6 |
| 20260504043218 | 14 | 275 | 0.0 | 0.0 | 0.00 | 0.18 | 0.18 | 60 | 1004.5 |
| 20260504040218 | 14 | 212 | 0.0 | 6.4 | 0.00 | 0.18 | 0.18 | 59 | 1004.4 |
| 20260504033218 | 14 | 242 | 0.0 | 0.0 | 0.00 | 0.18 | 0.18 | 58 | 1004.5 |
| 20260504030218 | 15 | 239 | 0.0 | 0.0 | 0.00 | 0.18 | 0.18 | 56 | 1005.0 |
| 20260504020218 | 16 | 227 | 0.0 | 3.2 | 0.00 | 0.18 | 0.18 | 52 | 1004.8 |
| 20260504003218 | 18 | 236 | 0.0 | 8.0 | 0.00 | 0.18 | 0.18 | 44 | 1004.3 |
| 20260504000219 | 19 | 232 | 1.6 | 12.9 | 0.00 | 0.18 | 0.18 | 42 | 1004.5 |
| 20260503233218 | 19 | 216 | 3.2 | 24.1 | 0.00 | 0.18 | 0.18 | 40 | 1004.5 |
| 20260503230218 | 20 | 74 | 6.4 | 22.5 | 0.00 | 0.18 | 0.18 | 40 | 1004.6 |
| 20260503223218 | 20 | 212 | 8.0 | 35.4 | 0.00 | 0.18 | 0.18 | 38 | 1004.7 |
| 20260503220218 | 19 | 215 | 12.9 | 16.1 | 0.00 | 0.18 | 0.18 | 39 | 1004.9 |
| 20260503210218 | 20 | 215 | 8.0 | 19.3 | 0.00 | 0.18 | 0.18 | 38 | 1005.8 |
| 20260503203218 | 18 | 223 | 9.7 | 14.5 | 0.00 | 0.18 | 0.18 | 37 | 1006.3 |
| 20260503200218 | 18 | 267 | 3.2 | 24.1 | 0.00 | 0.18 | 0.18 | 37 | 1006.8 |
| 20260503193218 | 17 | 219 | 1.6 | 22.5 | 0.00 | 0.18 | 0.18 | 45 | 1007.4 |
| 20260503190218 | 15 | 211 | 6.4 | 33.8 | 0.00 | 0.18 | 0.18 | 52 | 1007.5 |
| 20260503183218 | 14 | 122 | 0.0 | 30.6 | 0.00 | 0.18 | 0.18 | 63 | 1008.0 |
| 20260503180218 | 12 | 128 | 8.0 | 22.5 | 0.00 | 0.18 | 0.18 | 69 | 1008.7 |
| 20260503173218 | 10 | 143 | 4.8 | 22.5 | 0.05 | 0.18 | 0.18 | 80 | 1009.2 |
| 20260503170218 | 9 | 172 | 1.6 | 14.5 | 0.08 | 0.18 | 0.18 | 83 | 1010.6 |
| 20260503160218 | 10 | 227 | 3.2 | 12.9 | 0.10 | 0.10 | 0.10 | 74 | 1012.0 |
| 20260503140218 | 10 | 244 | 0.0 | 14.5 | 0.00 | 0.00 | 0.00 | 57 | 1012.4 |
| 20260503130217 | 8 | 269 | 0.0 | 6.4 | 0.00 | 0.00 | 0.00 | 60 | 1012.8 |
| 20260503120218 | 8 | 223 | 0.0 | 0.0 | 0.00 | 0.00 | 0.00 | 60 | 1013.0 |
| 20260503110217 | 7 | 229 | 0.0 | 0.0 | 0.00 | 0.00 | 0.00 | 61 | 1012.7 |
| 20260503100217 | 6 | 229 | 0.0 | 0.0 | 0.00 | 0.00 | 0.00 | 63 | 1012.9 |
| 20260503090218 | 6 | 227 | 0.0 | 0.0 | 0.00 | 0.00 | 0.00 | 61 | 1013.3 |
| 20260503080217 | 6 | 242 | 0.0 | 0.0 | 0.00 | 0.00 | 0.00 | 59 | 1013.7 |